Year,Month,Day,Hour,Minute,Value (Times are PST for insolation in W/m^2)
2019,09,02,00,00,0.00
2019,09,02,00,01,0.00
2019,09,02,00,02,0.00
2019,09,02,00,03,0.00
2019,09,02,00,04,0.00
2019,09,02,00,05,0.00
2019,09,02,00,06,0.00
2019,09,02,00,07,0.00
2019,09,02,00,08,0.00
2019,09,02,00,09,0.00
2019,09,02,00,10,0.00
2019,09,02,00,11,0.00
2019,09,02,00,12,0.00
2019,09,02,00,13,0.00
2019,09,02,00,14,0.00
2019,09,02,00,15,0.00
2019,09,02,00,16,0.00
2019,09,02,00,17,0.00
2019,09,02,00,18,0.00
2019,09,02,00,19,0.00
2019,09,02,00,20,0.00
2019,09,02,00,21,0.00
2019,09,02,00,22,0.00
2019,09,02,00,23,0.00
2019,09,02,00,24,0.00
2019,09,02,00,25,0.00
2019,09,02,00,26,0.00
2019,09,02,00,27,0.00
2019,09,02,00,28,0.00
2019,09,02,00,29,0.00
2019,09,02,00,30,0.00
2019,09,02,00,31,0.00
2019,09,02,00,32,0.00
2019,09,02,00,33,0.00
2019,09,02,00,34,0.00
2019,09,02,00,35,0.00
2019,09,02,00,36,0.00
2019,09,02,00,37,0.00
2019,09,02,00,38,0.00
2019,09,02,00,39,0.00
2019,09,02,00,40,0.00
2019,09,02,00,41,0.00
2019,09,02,00,42,0.00
2019,09,02,00,43,0.00
2019,09,02,00,44,0.00
2019,09,02,00,45,0.00
2019,09,02,00,46,0.00
2019,09,02,00,47,0.00
2019,09,02,00,48,0.00
2019,09,02,00,49,0.00
2019,09,02,00,50,0.00
2019,09,02,00,51,0.00
2019,09,02,00,52,0.00
2019,09,02,00,53,0.00
2019,09,02,00,54,0.00
2019,09,02,00,55,0.00
2019,09,02,00,56,0.00
2019,09,02,00,57,0.00
2019,09,02,00,58,0.00
2019,09,02,00,59,0.00
2019,09,02,01,00,0.00
2019,09,02,01,01,0.00
2019,09,02,01,02,0.00
2019,09,02,01,03,0.00
2019,09,02,01,04,0.00
2019,09,02,01,05,0.00
2019,09,02,01,06,0.00
2019,09,02,01,07,0.00
2019,09,02,01,08,0.00
2019,09,02,01,09,0.00
2019,09,02,01,10,0.00
2019,09,02,01,11,0.00
2019,09,02,01,12,0.00
2019,09,02,01,13,0.00
2019,09,02,01,14,0.00
2019,09,02,01,15,0.00
2019,09,02,01,16,0.00
2019,09,02,01,17,0.00
2019,09,02,01,18,0.00
2019,09,02,01,19,0.00
2019,09,02,01,20,0.00
2019,09,02,01,21,0.00
2019,09,02,01,22,0.00
2019,09,02,01,23,0.00
2019,09,02,01,24,0.00
2019,09,02,01,25,0.00
2019,09,02,01,26,0.00
2019,09,02,01,27,0.00
2019,09,02,01,28,0.00
2019,09,02,01,29,0.00
2019,09,02,01,30,0.00
2019,09,02,01,31,0.00
2019,09,02,01,32,0.00
2019,09,02,01,33,0.00
2019,09,02,01,34,0.00
2019,09,02,01,35,0.00
2019,09,02,01,36,0.00
2019,09,02,01,37,0.00
2019,09,02,01,38,0.00
2019,09,02,01,39,0.00
2019,09,02,01,40,0.00
2019,09,02,01,41,0.00
2019,09,02,01,42,0.00
2019,09,02,01,43,0.00
2019,09,02,01,44,0.00
2019,09,02,01,45,0.00
2019,09,02,01,46,0.00
2019,09,02,01,47,0.00
2019,09,02,01,48,0.00
2019,09,02,01,49,0.00
2019,09,02,01,50,0.00
2019,09,02,01,51,0.00
2019,09,02,01,52,0.00
2019,09,02,01,53,0.00
2019,09,02,01,54,0.00
2019,09,02,01,55,0.00
2019,09,02,01,56,0.00
2019,09,02,01,57,0.00
2019,09,02,01,58,0.00
2019,09,02,01,59,0.00
2019,09,02,02,00,0.00
2019,09,02,02,01,0.00
2019,09,02,02,02,0.00
2019,09,02,02,03,0.00
2019,09,02,02,04,0.00
2019,09,02,02,05,0.00
2019,09,02,02,06,0.00
2019,09,02,02,07,0.00
2019,09,02,02,08,0.00
2019,09,02,02,09,0.00
2019,09,02,02,10,0.00
2019,09,02,02,11,0.00
2019,09,02,02,12,0.00
2019,09,02,02,13,0.00
2019,09,02,02,14,0.00
2019,09,02,02,15,0.00
2019,09,02,02,16,0.00
2019,09,02,02,17,0.00
2019,09,02,02,18,0.00
2019,09,02,02,19,0.00
2019,09,02,02,20,0.00
2019,09,02,02,21,0.00
2019,09,02,02,22,0.00
2019,09,02,02,23,0.00
2019,09,02,02,24,0.00
2019,09,02,02,25,0.00
2019,09,02,02,26,0.00
2019,09,02,02,27,0.00
2019,09,02,02,28,0.00
2019,09,02,02,29,0.00
2019,09,02,02,30,0.00
2019,09,02,02,31,0.00
2019,09,02,02,32,0.00
2019,09,02,02,33,0.00
2019,09,02,02,34,0.00
2019,09,02,02,35,0.00
2019,09,02,02,36,0.00
2019,09,02,02,37,0.00
2019,09,02,02,38,0.00
2019,09,02,02,39,0.00
2019,09,02,02,40,0.00
2019,09,02,02,41,0.00
2019,09,02,02,42,0.00
2019,09,02,02,43,0.00
2019,09,02,02,44,0.00
2019,09,02,02,45,0.00
2019,09,02,02,46,0.00
2019,09,02,02,47,0.00
2019,09,02,02,48,0.00
2019,09,02,02,49,0.00
2019,09,02,02,50,0.00
2019,09,02,02,51,0.00
2019,09,02,02,52,0.00
2019,09,02,02,53,0.00
2019,09,02,02,54,0.00
2019,09,02,02,55,0.00
2019,09,02,02,56,0.00
2019,09,02,02,57,0.00
2019,09,02,02,58,0.00
2019,09,02,02,59,0.00
2019,09,02,03,00,0.00
2019,09,02,03,01,0.00
2019,09,02,03,02,0.00
2019,09,02,03,03,0.00
2019,09,02,03,04,0.00
2019,09,02,03,05,0.00
2019,09,02,03,06,0.00
2019,09,02,03,07,0.00
2019,09,02,03,08,0.00
2019,09,02,03,09,0.00
2019,09,02,03,10,0.00
2019,09,02,03,11,0.00
2019,09,02,03,12,0.00
2019,09,02,03,13,0.00
2019,09,02,03,14,0.00
2019,09,02,03,15,0.00
2019,09,02,03,16,0.00
2019,09,02,03,17,0.00
2019,09,02,03,18,0.00
2019,09,02,03,19,0.00
2019,09,02,03,20,0.00
2019,09,02,03,21,0.00
2019,09,02,03,22,0.00
2019,09,02,03,23,0.00
2019,09,02,03,24,0.00
2019,09,02,03,25,0.00
2019,09,02,03,26,0.00
2019,09,02,03,27,0.00
2019,09,02,03,28,0.00
2019,09,02,03,29,0.00
2019,09,02,03,30,0.00
2019,09,02,03,31,0.00
2019,09,02,03,32,0.00
2019,09,02,03,33,0.00
2019,09,02,03,34,0.00
2019,09,02,03,35,0.00
2019,09,02,03,36,0.00
2019,09,02,03,37,0.00
2019,09,02,03,38,0.00
2019,09,02,03,39,0.00
2019,09,02,03,40,0.00
2019,09,02,03,41,0.00
2019,09,02,03,42,0.00
2019,09,02,03,43,0.00
2019,09,02,03,44,0.00
2019,09,02,03,45,0.00
2019,09,02,03,46,0.00
2019,09,02,03,47,0.00
2019,09,02,03,48,0.00
2019,09,02,03,49,0.00
2019,09,02,03,50,0.00
2019,09,02,03,51,0.00
2019,09,02,03,52,0.00
2019,09,02,03,53,0.00
2019,09,02,03,54,0.00
2019,09,02,03,55,0.00
2019,09,02,03,56,0.00
2019,09,02,03,57,0.00
2019,09,02,03,58,0.00
2019,09,02,03,59,0.00
2019,09,02,04,00,0.00
2019,09,02,04,01,0.00
2019,09,02,04,02,0.00
2019,09,02,04,03,0.00
2019,09,02,04,04,0.00
2019,09,02,04,05,0.00
2019,09,02,04,06,0.00
2019,09,02,04,07,0.00
2019,09,02,04,08,0.00
2019,09,02,04,09,0.00
2019,09,02,04,10,0.00
2019,09,02,04,11,0.00
2019,09,02,04,12,0.00
2019,09,02,04,13,0.00
2019,09,02,04,14,0.00
2019,09,02,04,15,0.00
2019,09,02,04,16,0.00
2019,09,02,04,17,0.00
2019,09,02,04,18,0.00
2019,09,02,04,19,0.00
2019,09,02,04,20,0.00
2019,09,02,04,21,0.00
2019,09,02,04,22,0.00
2019,09,02,04,23,0.00
2019,09,02,04,24,0.00
2019,09,02,04,25,0.00
2019,09,02,04,26,0.00
2019,09,02,04,27,0.00
2019,09,02,04,28,0.00
2019,09,02,04,29,0.00
2019,09,02,04,30,0.00
2019,09,02,04,31,0.00
2019,09,02,04,32,0.00
2019,09,02,04,33,0.00
2019,09,02,04,34,0.00
2019,09,02,04,35,0.00
2019,09,02,04,36,0.00
2019,09,02,04,37,0.00
2019,09,02,04,38,0.00
2019,09,02,04,39,0.00
2019,09,02,04,40,0.00
2019,09,02,04,41,0.00
2019,09,02,04,42,0.00
2019,09,02,04,43,0.00
2019,09,02,04,44,0.00
2019,09,02,04,45,0.00
2019,09,02,04,46,0.00
2019,09,02,04,47,0.00
2019,09,02,04,48,0.00
2019,09,02,04,49,0.00
2019,09,02,04,50,0.00
2019,09,02,04,51,0.00
2019,09,02,04,52,0.00
2019,09,02,04,53,0.00
2019,09,02,04,54,0.00
2019,09,02,04,55,0.00
2019,09,02,04,56,0.00
2019,09,02,04,57,0.00
2019,09,02,04,58,0.00
2019,09,02,04,59,0.00
2019,09,02,05,00,0.00
2019,09,02,05,01,0.00
2019,09,02,05,02,0.00
2019,09,02,05,03,0.00
2019,09,02,05,04,0.00
2019,09,02,05,05,0.00
2019,09,02,05,06,0.00
2019,09,02,05,07,0.00
2019,09,02,05,08,0.00
2019,09,02,05,09,0.00
2019,09,02,05,10,0.00
2019,09,02,05,11,0.00
2019,09,02,05,12,0.00
2019,09,02,05,13,0.00
2019,09,02,05,14,0.00
2019,09,02,05,15,0.00
2019,09,02,05,16,0.00
2019,09,02,05,17,0.00
2019,09,02,05,18,0.00
2019,09,02,05,19,0.00
2019,09,02,05,20,0.00
2019,09,02,05,21,0.00
2019,09,02,05,22,0.00
2019,09,02,05,23,0.00
2019,09,02,05,24,0.00
2019,09,02,05,25,0.00
2019,09,02,05,26,0.00
2019,09,02,05,27,0.00
2019,09,02,05,28,0.00
2019,09,02,05,29,0.00
2019,09,02,05,30,0.00
2019,09,02,05,31,0.00
2019,09,02,05,32,0.00
2019,09,02,05,33,0.00
2019,09,02,05,34,0.00
2019,09,02,05,35,0.00
2019,09,02,05,36,0.00
2019,09,02,05,37,0.00
2019,09,02,05,38,0.00
2019,09,02,05,39,0.00
2019,09,02,05,40,0.00
2019,09,02,05,41,0.00
2019,09,02,05,42,0.00
2019,09,02,05,43,0.00
2019,09,02,05,44,0.00
2019,09,02,05,45,0.00
2019,09,02,05,46,0.00
2019,09,02,05,47,0.00
2019,09,02,05,48,0.00
2019,09,02,05,49,0.00
2019,09,02,05,50,0.00
2019,09,02,05,51,0.00
2019,09,02,05,52,0.00
2019,09,02,05,53,0.00
2019,09,02,05,54,0.00
2019,09,02,05,55,0.00
2019,09,02,05,56,0.00
2019,09,02,05,57,0.00
2019,09,02,05,58,0.00
2019,09,02,05,59,0.00
2019,09,02,06,00,0.00
2019,09,02,06,01,0.00
2019,09,02,06,02,0.00
2019,09,02,06,03,0.00
2019,09,02,06,04,0.00
2019,09,02,06,05,0.00
2019,09,02,06,06,0.00
2019,09,02,06,07,0.00
2019,09,02,06,08,0.00
2019,09,02,06,09,0.00
2019,09,02,06,10,0.00
2019,09,02,06,11,0.00
2019,09,02,06,12,0.00
2019,09,02,06,13,0.00
2019,09,02,06,14,0.00
2019,09,02,06,15,0.00
2019,09,02,06,16,0.00
2019,09,02,06,17,0.00
2019,09,02,06,18,0.00
2019,09,02,06,19,0.00
2019,09,02,06,20,0.00
2019,09,02,06,21,0.00
2019,09,02,06,22,0.00
2019,09,02,06,23,0.00
2019,09,02,06,24,0.00
2019,09,02,06,25,0.00
2019,09,02,06,26,0.00
2019,09,02,06,27,0.00
2019,09,02,06,28,0.00
2019,09,02,06,29,0.00
2019,09,02,06,30,0.00
2019,09,02,06,31,0.00
2019,09,02,06,32,0.00
2019,09,02,06,33,0.00
2019,09,02,06,34,0.00
2019,09,02,06,35,4.50
2019,09,02,06,36,5.00
2019,09,02,06,37,5.00
2019,09,02,06,38,5.00
2019,09,02,06,39,5.00
2019,09,02,06,40,7.00
2019,09,02,06,41,7.00
2019,09,02,06,42,7.00
2019,09,02,06,43,7.20
2019,09,02,06,44,9.00
2019,09,02,06,45,9.00
2019,09,02,06,46,9.30
2019,09,02,06,47,11.00
2019,09,02,06,48,11.00
2019,09,02,06,49,11.00
2019,09,02,06,50,11.20
2019,09,02,06,51,12.00
2019,09,02,06,52,12.00
2019,09,02,06,53,12.00
2019,09,02,06,54,12.70
2019,09,02,06,55,14.00
2019,09,02,06,56,14.00
2019,09,02,06,57,14.80
2019,09,02,06,58,16.00
2019,09,02,06,59,16.00
2019,09,02,07,00,16.00
2019,09,02,07,01,16.90
2019,09,02,07,02,18.00
2019,09,02,07,03,18.00
2019,09,02,07,04,18.50
2019,09,02,07,05,20.10
2019,09,02,07,06,22.10
2019,09,02,07,07,23.00
2019,09,02,07,08,23.00
2019,09,02,07,09,25.00
2019,09,02,07,10,27.30
2019,09,02,07,11,29.40
2019,09,02,07,12,31.40
2019,09,02,07,13,32.70
2019,09,02,07,14,34.50
2019,09,02,07,15,36.50
2019,09,02,07,16,38.60
2019,09,02,07,17,39.80
2019,09,02,07,18,41.60
2019,09,02,07,19,43.70
2019,09,02,07,20,45.70
2019,09,02,07,21,46.90
2019,09,02,07,22,48.80
2019,09,02,07,23,50.80
2019,09,02,07,24,52.90
2019,09,02,07,25,54.00
2019,09,02,07,26,56.00
2019,09,02,07,27,58.10
2019,09,02,07,28,60.10
2019,09,02,07,29,62.00
2019,09,02,07,30,62.20
2019,09,02,07,31,67.20
2019,09,02,07,32,69.10
2019,09,02,07,33,70.30
2019,09,02,07,34,72.30
2019,09,02,07,35,74.40
2019,09,02,07,36,76.20
2019,09,02,07,37,78.00
2019,09,02,07,38,81.50
2019,09,02,07,39,83.30
2019,09,02,07,40,85.20
2019,09,02,07,41,88.70
2019,09,02,07,42,90.30
2019,09,02,07,43,91.80
2019,09,02,07,44,93.00
2019,09,02,07,45,95.00
2019,09,02,07,46,98.90
2019,09,02,07,47,101.70
2019,09,02,07,48,104.50
2019,09,02,07,49,106.90
2019,09,02,07,50,110.00
2019,09,02,07,51,112.10
2019,09,02,07,52,114.60
2019,09,02,07,53,116.00
2019,09,02,07,54,119.00
2019,09,02,07,55,122.30
2019,09,02,07,56,124.30
2019,09,02,07,57,126.90
2019,09,02,07,58,129.40
2019,09,02,07,59,132.80
2019,09,02,08,00,134.70
2019,09,02,08,01,137.80
2019,09,02,08,02,139.00
2019,09,02,08,03,141.40
2019,09,02,08,04,145.20
2019,09,02,08,05,146.00
2019,09,02,08,06,150.00
2019,09,02,08,07,152.70
2019,09,02,08,08,155.70
2019,09,02,08,09,157.80
2019,09,02,08,10,159.80
2019,09,02,08,11,162.90
2019,09,02,08,12,164.90
2019,09,02,08,13,167.00
2019,09,02,08,14,171.00
2019,09,02,08,15,172.20
2019,09,02,08,16,176.20
2019,09,02,08,17,178.10
2019,09,02,08,18,179.40
2019,09,02,08,19,183.20
2019,09,02,08,20,185.40
2019,09,02,08,21,188.40
2019,09,02,08,22,190.40
2019,09,02,08,23,192.60
2019,09,02,08,24,195.50
2019,09,02,08,25,197.50
2019,09,02,08,26,199.30
2019,09,02,08,27,200.60
2019,09,02,08,28,203.30
2019,09,02,08,29,206.30
2019,09,02,08,30,207.70
2019,09,02,08,31,210.40
2019,09,02,08,32,213.40
2019,09,02,08,33,215.80
2019,09,02,08,34,218.00
2019,09,02,08,35,219.40
2019,09,02,08,36,223.00
2019,09,02,08,37,226.00
2019,09,02,08,38,228.60
2019,09,02,08,39,231.10
2019,09,02,08,40,233.20
2019,09,02,08,41,235.80
2019,09,02,08,42,238.30
2019,09,02,08,43,240.30
2019,09,02,08,44,242.90
2019,09,02,08,45,245.40
2019,09,02,08,46,247.40
2019,09,02,08,47,250.10
2019,09,02,08,48,251.00
2019,09,02,08,49,254.00
2019,09,02,08,50,257.40
2019,09,02,08,51,261.20
2019,09,02,08,52,262.00
2019,09,02,08,53,266.20
2019,09,02,08,54,268.70
2019,09,02,08,55,269.00
2019,09,02,08,56,273.50
2019,09,02,08,57,277.80
2019,09,02,08,58,279.00
2019,09,02,08,59,283.00
2019,09,02,09,00,287.00
2019,09,02,09,01,288.00
2019,09,02,09,02,290.20
2019,09,02,09,03,294.30
2019,09,02,09,04,297.20
2019,09,02,09,05,301.30
2019,09,02,09,06,304.00
2019,09,02,09,07,304.00
2019,09,02,09,08,304.00
2019,09,02,09,09,304.00
2019,09,02,09,10,306.60
2019,09,02,09,11,316.80
2019,09,02,09,12,320.50
2019,09,02,09,13,322.20
2019,09,02,09,14,324.20
2019,09,02,09,15,327.60
2019,09,02,09,16,330.00
2019,09,02,09,17,332.70
2019,09,02,09,18,335.50
2019,09,02,09,19,339.30
2019,09,02,09,20,341.90
2019,09,02,09,21,343.90
2019,09,02,09,22,346.40
2019,09,02,09,23,349.00
2019,09,02,09,24,351.00
2019,09,02,09,25,352.50
2019,09,02,09,26,355.30
2019,09,02,09,27,358.10
2019,09,02,09,28,360.70
2019,09,02,09,29,363.20
2019,09,02,09,30,365.90
2019,09,02,09,31,368.30
2019,09,02,09,32,370.30
2019,09,02,09,33,373.20
2019,09,02,09,34,376.80
2019,09,02,09,35,379.50
2019,09,02,09,36,380.80
2019,09,02,09,37,382.60
2019,09,02,09,38,386.20
2019,09,02,09,39,387.80
2019,09,02,09,40,389.60
2019,09,02,09,41,393.40
2019,09,02,09,42,394.00
2019,09,02,09,43,398.50
2019,09,02,09,44,400.90
2019,09,02,09,45,401.00
2019,09,02,09,46,403.90
2019,09,02,09,47,408.00
2019,09,02,09,48,408.10
2019,09,02,09,49,411.20
2019,09,02,09,50,415.10
2019,09,02,09,51,417.10
2019,09,02,09,52,418.20
2019,09,02,09,53,420.30
2019,09,02,09,54,422.30
2019,09,02,09,55,424.50
2019,09,02,09,56,427.40
2019,09,02,09,57,429.50
2019,09,02,09,58,431.30
2019,09,02,09,59,432.00
2019,09,02,10,00,432.00
2019,09,02,10,01,434.10
2019,09,02,10,02,439.00
2019,09,02,10,03,440.40
2019,09,02,10,04,443.70
2019,09,02,10,05,445.40
2019,09,02,10,06,446.80
2019,09,02,10,07,448.90
2019,09,02,10,08,450.00
2019,09,02,10,09,452.40
2019,09,02,10,10,457.10
2019,09,02,10,11,460.00
2019,09,02,10,12,461.50
2019,09,02,10,13,463.10
2019,09,02,10,14,465.10
2019,09,02,10,15,467.90
2019,09,02,10,16,469.00
2019,09,02,10,17,471.60
2019,09,02,10,18,474.40
2019,09,02,10,19,475.00
2019,09,02,10,20,477.10
2019,09,02,10,21,479.40
2019,09,02,10,22,481.40
2019,09,02,10,23,484.20
2019,09,02,10,24,486.50
2019,09,02,10,25,487.00
2019,09,02,10,26,489.40
2019,09,02,10,27,491.80
2019,09,02,10,28,495.40
2019,09,02,10,29,496.00
2019,09,02,10,30,496.90
2019,09,02,10,31,498.80
2019,09,02,10,32,499.00
2019,09,02,10,33,499.00
2019,09,02,10,34,499.00
2019,09,02,10,35,172.60
2019,09,02,10,36,201.80
2019,09,02,10,37,199.30
2019,09,02,10,38,201.80
2019,09,02,10,39,199.00
2019,09,02,10,40,247.10
2019,09,02,10,41,520.30
2019,09,02,10,42,522.40
2019,09,02,10,43,524.00
2019,09,02,10,44,524.00
2019,09,02,10,45,525.10
2019,09,02,10,46,529.50
2019,09,02,10,47,531.80
2019,09,02,10,48,534.00
2019,09,02,10,49,534.00
2019,09,02,10,50,474.50
2019,09,02,10,51,364.00
2019,09,02,10,52,434.80
2019,09,02,10,53,541.80
2019,09,02,10,54,543.80
2019,09,02,10,55,544.10
2019,09,02,10,56,543.90
2019,09,02,10,57,540.00
2019,09,02,10,58,536.00
2019,09,02,10,59,539.60
2019,09,02,11,00,550.30
2019,09,02,11,01,558.10
2019,09,02,11,02,561.50
2019,09,02,11,03,566.00
2019,09,02,11,04,568.00
2019,09,02,11,05,577.10
2019,09,02,11,06,583.40
2019,09,02,11,07,587.40
2019,09,02,11,08,593.90
2019,09,02,11,09,601.20
2019,09,02,11,10,605.30
2019,09,02,11,11,606.00
2019,09,02,11,12,606.00
2019,09,02,11,13,606.00
2019,09,02,11,14,585.60
2019,09,02,11,15,582.00
2019,09,02,11,16,582.00
2019,09,02,11,17,582.00
2019,09,02,11,18,584.70
2019,09,02,11,19,585.00
2019,09,02,11,20,585.00
2019,09,02,11,21,585.00
2019,09,02,11,22,585.30
2019,09,02,11,23,592.00
2019,09,02,11,24,592.30
2019,09,02,11,25,598.00
2019,09,02,11,26,598.00
2019,09,02,11,27,598.00
2019,09,02,11,28,598.00
2019,09,02,11,29,598.20
2019,09,02,11,30,599.00
2019,09,02,11,31,600.00
2019,09,02,11,32,603.50
2019,09,02,11,33,605.30
2019,09,02,11,34,607.20
2019,09,02,11,35,606.20
2019,09,02,11,36,603.70
2019,09,02,11,37,614.30
2019,09,02,11,38,612.60
2019,09,02,11,39,613.10
2019,09,02,11,40,615.80
2019,09,02,11,41,616.20
2019,09,02,11,42,615.90
2019,09,02,11,43,617.00
2019,09,02,11,44,617.90
2019,09,02,11,45,621.50
2019,09,02,11,46,624.00
2019,09,02,11,47,626.30
2019,09,02,11,48,571.80
2019,09,02,11,49,591.00
2019,09,02,11,50,629.80
2019,09,02,11,51,629.00
2019,09,02,11,52,583.70
2019,09,02,11,53,610.00
2019,09,02,11,54,631.00
2019,09,02,11,55,632.50
2019,09,02,11,56,630.00
2019,09,02,11,57,630.50
2019,09,02,11,58,632.50
2019,09,02,11,59,634.60
2019,09,02,12,00,635.80
2019,09,02,12,01,636.00
2019,09,02,12,02,637.70
2019,09,02,12,03,639.80
2019,09,02,12,04,640.00
2019,09,02,12,05,641.90
2019,09,02,12,06,642.00
2019,09,02,12,07,644.90
2019,09,02,12,08,645.00
2019,09,02,12,09,647.00
2019,09,02,12,10,647.10
2019,09,02,12,11,649.00
2019,09,02,12,12,649.10
2019,09,02,12,13,650.00
2019,09,02,12,14,650.00
2019,09,02,12,15,650.60
2019,09,02,12,16,654.00
2019,09,02,12,17,654.00
2019,09,02,12,18,654.40
2019,09,02,12,19,656.00
2019,09,02,12,20,655.50
2019,09,02,12,21,654.90
2019,09,02,12,22,657.00
2019,09,02,12,23,657.60
2019,09,02,12,24,659.00
2019,09,02,12,25,659.00
2019,09,02,12,26,659.00
2019,09,02,12,27,658.20
2019,09,02,12,28,657.90
2019,09,02,12,29,659.90
2019,09,02,12,30,661.00
2019,09,02,12,31,662.10
2019,09,02,12,32,663.50
2019,09,02,12,33,665.00
2019,09,02,12,34,667.10
2019,09,02,12,35,668.00
2019,09,02,12,36,668.00
2019,09,02,12,37,666.80
2019,09,02,12,38,667.30
2019,09,02,12,39,668.00
2019,09,02,12,40,668.00
2019,09,02,12,41,668.00
2019,09,02,12,42,669.40
2019,09,02,12,43,670.70
2019,09,02,12,44,671.00
2019,09,02,12,45,671.00
2019,09,02,12,46,671.00
2019,09,02,12,47,670.20
2019,09,02,12,48,670.00
2019,09,02,12,49,670.00
2019,09,02,12,50,670.90
2019,09,02,12,51,672.80
2019,09,02,12,52,673.00
2019,09,02,12,53,671.10
2019,09,02,12,54,671.00
2019,09,02,12,55,671.00
2019,09,02,12,56,671.10
2019,09,02,12,57,673.00
2019,09,02,12,58,672.90
2019,09,02,12,59,671.20
2019,09,02,13,00,673.20
2019,09,02,13,01,675.00
2019,09,02,13,02,675.30
2019,09,02,13,03,677.30
2019,09,02,13,04,679.00
2019,09,02,13,05,679.00
2019,09,02,13,06,679.00
2019,09,02,13,07,679.00
2019,09,02,13,08,679.00
2019,09,02,13,09,679.00
2019,09,02,13,10,679.00
2019,09,02,13,11,679.00
2019,09,02,13,12,679.00
2019,09,02,13,13,679.40
2019,09,02,13,14,680.00
2019,09,02,13,15,679.60
2019,09,02,13,16,679.50
2019,09,02,13,17,680.00
2019,09,02,13,18,680.00
2019,09,02,13,19,676.50
2019,09,02,13,20,676.80
2019,09,02,13,21,680.00
2019,09,02,13,22,650.30
2019,09,02,13,23,659.20
2019,09,02,13,24,680.00
2019,09,02,13,25,679.30
2019,09,02,13,26,679.70
2019,09,02,13,27,680.00
2019,09,02,13,28,680.00
2019,09,02,13,29,681.40
2019,09,02,13,30,682.00
2019,09,02,13,31,682.00
2019,09,02,13,32,680.40
2019,09,02,13,33,680.00
2019,09,02,13,34,680.00
2019,09,02,13,35,680.00
2019,09,02,13,36,679.20
2019,09,02,13,37,679.00
2019,09,02,13,38,679.00
2019,09,02,13,39,680.00
2019,09,02,13,40,679.00
2019,09,02,13,41,677.10
2019,09,02,13,42,675.00
2019,09,02,13,43,677.00
2019,09,02,13,44,677.00
2019,09,02,13,45,677.00
2019,09,02,13,46,677.00
2019,09,02,13,47,677.00
2019,09,02,13,48,677.00
2019,09,02,13,49,677.30
2019,09,02,13,50,678.70
2019,09,02,13,51,676.20
2019,09,02,13,52,673.00
2019,09,02,13,53,673.00
2019,09,02,13,54,673.50
2019,09,02,13,55,674.40
2019,09,02,13,56,672.10
2019,09,02,13,57,670.00
2019,09,02,13,58,670.00
2019,09,02,13,59,669.20
2019,09,02,14,00,667.20
2019,09,02,14,01,666.80
2019,09,02,14,02,668.00
2019,09,02,14,03,667.10
2019,09,02,14,04,667.00
2019,09,02,14,05,668.00
2019,09,02,14,06,668.00
2019,09,02,14,07,667.00
2019,09,02,14,08,664.90
2019,09,02,14,09,664.00
2019,09,02,14,10,664.00
2019,09,02,14,11,663.40
2019,09,02,14,12,661.70
2019,09,02,14,13,659.70
2019,09,02,14,14,660.40
2019,09,02,14,15,661.00
2019,09,02,14,16,661.00
2019,09,02,14,17,658.00
2019,09,02,14,18,658.60
2019,09,02,14,19,659.00
2019,09,02,14,20,659.00
2019,09,02,14,21,657.40
2019,09,02,14,22,658.70
2019,09,02,14,23,654.80
2019,09,02,14,24,654.00
2019,09,02,14,25,654.00
2019,09,02,14,26,654.00
2019,09,02,14,27,652.10
2019,09,02,14,28,652.00
2019,09,02,14,29,652.00
2019,09,02,14,30,648.90
2019,09,02,14,31,647.00
2019,09,02,14,32,647.00
2019,09,02,14,33,625.00
2019,09,02,14,34,427.00
2019,09,02,14,35,459.40
2019,09,02,14,36,642.80
2019,09,02,14,37,642.00
2019,09,02,14,38,641.60
2019,09,02,14,39,639.60
2019,09,02,14,40,638.50
2019,09,02,14,41,639.00
2019,09,02,14,42,635.80
2019,09,02,14,43,635.00
2019,09,02,14,44,635.00
2019,09,02,14,45,632.90
2019,09,02,14,46,630.50
2019,09,02,14,47,632.20
2019,09,02,14,48,631.00
2019,09,02,14,49,631.00
2019,09,02,14,50,631.00
2019,09,02,14,51,631.00
2019,09,02,14,52,630.00
2019,09,02,14,53,626.50
2019,09,02,14,54,624.00
2019,09,02,14,55,622.90
2019,09,02,14,56,623.20
2019,09,02,14,57,622.80
2019,09,02,14,58,621.40
2019,09,02,14,59,621.00
2019,09,02,15,00,621.00
2019,09,02,15,01,618.20
2019,09,02,15,02,617.00
2019,09,02,15,03,617.00
2019,09,02,15,04,617.00
2019,09,02,15,05,613.20
2019,09,02,15,06,612.00
2019,09,02,15,07,612.00
2019,09,02,15,08,610.30
2019,09,02,15,09,610.00
2019,09,02,15,10,608.30
2019,09,02,15,11,606.20
2019,09,02,15,12,605.10
2019,09,02,15,13,605.00
2019,09,02,15,14,605.00
2019,09,02,15,15,606.00
2019,09,02,15,16,603.00
2019,09,02,15,17,600.90
2019,09,02,15,18,595.60
2019,09,02,15,19,537.40
2019,09,02,15,20,597.80
2019,09,02,15,21,595.70
2019,09,02,15,22,593.70
2019,09,02,15,23,591.80
2019,09,02,15,24,590.60
2019,09,02,15,25,588.60
2019,09,02,15,26,586.50
2019,09,02,15,27,584.80
2019,09,02,15,28,584.00
2019,09,02,15,29,583.40
2019,09,02,15,30,582.00
2019,09,02,15,31,582.00
2019,09,02,15,32,580.50
2019,09,02,15,33,578.00
2019,09,02,15,34,554.80
2019,09,02,15,35,541.20
2019,09,02,15,36,573.00
2019,09,02,15,37,572.10
2019,09,02,15,38,569.60
2019,09,02,15,39,568.00
2019,09,02,15,40,567.00
2019,09,02,15,41,564.90
2019,09,02,15,42,563.40
2019,09,02,15,43,563.00
2019,09,02,15,44,563.00
2019,09,02,15,45,558.20
2019,09,02,15,46,554.30
2019,09,02,15,47,554.00
2019,09,02,15,48,551.20
2019,09,02,15,49,547.90
2019,09,02,15,50,547.70
2019,09,02,15,51,545.80
2019,09,02,15,52,543.50
2019,09,02,15,53,543.00
2019,09,02,15,54,535.80
2019,09,02,15,55,537.20
2019,09,02,15,56,536.30
2019,09,02,15,57,533.50
2019,09,02,15,58,531.20
2019,09,02,15,59,529.20
2019,09,02,16,00,487.20
2019,09,02,16,01,524.90
2019,09,02,16,02,527.00
2019,09,02,16,03,523.80
2019,09,02,16,04,520.00
2019,09,02,16,05,519.80
2019,09,02,16,06,517.00
2019,09,02,16,07,516.60
2019,09,02,16,08,512.50
2019,09,02,16,09,510.00
2019,09,02,16,10,510.00
2019,09,02,16,11,508.80
2019,09,02,16,12,504.40
2019,09,02,16,13,505.20
2019,09,02,16,14,503.00
2019,09,02,16,15,501.50
2019,09,02,16,16,496.70
2019,09,02,16,17,496.00
2019,09,02,16,18,494.60
2019,09,02,16,19,491.00
2019,09,02,16,20,488.20
2019,09,02,16,21,485.30
2019,09,02,16,22,483.00
2019,09,02,16,23,482.50
2019,09,02,16,24,480.20
2019,09,02,16,25,477.00
2019,09,02,16,26,476.00
2019,09,02,16,27,474.40
2019,09,02,16,28,470.80
2019,09,02,16,29,469.00
2019,09,02,16,30,467.30
2019,09,02,16,31,464.80
2019,09,02,16,32,462.20
2019,09,02,16,33,459.70
2019,09,02,16,34,457.70
2019,09,02,16,35,394.00
2019,09,02,16,36,427.90
2019,09,02,16,37,451.20
2019,09,02,16,38,447.00
2019,09,02,16,39,446.00
2019,09,02,16,40,445.20
2019,09,02,16,41,441.80
2019,09,02,16,42,439.30
2019,09,02,16,43,438.10
2019,09,02,16,44,436.30
2019,09,02,16,45,434.20
2019,09,02,16,46,431.10
2019,09,02,16,47,424.40
2019,09,02,16,48,426.90
2019,09,02,16,49,427.00
2019,09,02,16,50,427.00
2019,09,02,16,51,414.40
2019,09,02,16,52,174.00
2019,09,02,16,53,174.00
2019,09,02,16,54,199.60
2019,09,02,16,55,416.00
2019,09,02,16,56,409.70
2019,09,02,16,57,407.70
2019,09,02,16,58,405.60
2019,09,02,16,59,403.20
2019,09,02,17,00,400.50
2019,09,02,17,01,398.50
2019,09,02,17,02,396.70
2019,09,02,17,03,394.80
2019,09,02,17,04,390.70
2019,09,02,17,05,387.60
2019,09,02,17,06,360.40
2019,09,02,17,07,311.00
2019,09,02,17,08,250.60
2019,09,02,17,09,169.00
2019,09,02,17,10,190.40
2019,09,02,17,11,214.10
2019,09,02,17,12,229.00